Flag for Germany Weather past 2 weeks in Sonneberg, Thuringia, Germany

Now
55 °F

Cool.


Feels Like: 54 °F
Forecast: 51 / 67 °F
Wind: 7 mph from Southeast

Location: Hof Airport

Current Time: Sep 17, 2014 at 1:54:04 AM

Latest Report: Sep 17, 2014 at 1:20 AM


Visibility: N/A

Pressure: 30.04 "Hg

Humidity: 82%

Dew point: 50 °F

Location of SonnebergLocation

Historic Weather in Sonneberg — Graph

°F

Sonneberg temperature yesterday

Maximum temperature yesterday: 70 °F (at 1:50 PM)
Minimum temperature yesterday: 52 °F (at 12:50 AM)
Average temperature yesterday: 59 °F

Past Weeks' High & Low Weather Summary

 TemperatureHumidityPressure
High75 °F (Sep 5, 2:20 PM)94% (Sep 2, 1:50 AM)30.24 "Hg (Sep 2, 1:50 AM)
Low45 °F (Sep 11, 3:50 AM)44% (Sep 7, 2:50 PM)29.92 "Hg (Sep 12, 7:50 AM)
Average58 °F85%30.07 "Hg
* Reported Sep 2 12:20 AM — Sep 17 12:20 AM, Sonneberg, Weather by CustomWeather, © 2014

Note: Actual official high and low records may vary slightly from our data, if they occured in-between our weather recording intervals... More about our weather records

Advertising

Sonneberg weather history for previous 24 hours

 ConditionsComfort  
Time TempWeatherWind HumidityBarometerVisibility
12:20 AM
Sep 17
55 °FFog.5 mph82%30.04 "HgN/A
11:50 PM
Sep 16
57 °FFog.8 mph77%30.04 "HgN/A
11:20 PM55 °FCool.7 mph82%30.07 "HgN/A
10:50 PM54 °FCool.5 mph88%30.07 "HgN/A
10:20 PM54 °FCool.3 mph88%30.07 "HgN/A
9:50 PM55 °FCool.5 mph88%30.07 "HgN/A
9:20 PM57 °FCool.5 mph77%30.07 "HgN/A
8:50 PM57 °FCool.3 mph77%30.07 "HgN/A
8:20 PM59 °FFog.5 mph72%30.04 "HgN/A
7:50 PM59 °FSunny.6 mph72%30.04 "Hg10 mi
7:20 PM61 °FSunny.7 mph72%30.04 "Hg10 mi
6:50 PM64 °FPassing clouds.6 mph64%30.04 "HgN/A
6:20 PM66 °FPassing clouds.7 mph60%30.04 "HgN/A
5:50 PM66 °FPassing clouds.8 mph56%30.04 "HgN/A
5:20 PM70 °FPassing clouds.8 mph50%30.04 "HgN/A
4:50 PM70 °FPassing clouds.7 mph46%30.04 "HgN/A
4:20 PM70 °FPassing clouds.9 mph50%30.04 "HgN/A
3:50 PM70 °FPassing clouds.8 mph50%30.07 "HgN/A
3:20 PM68 °FScattered clouds.9 mph56%30.07 "HgN/A
2:50 PM68 °FPassing clouds.9 mph56%30.07 "HgN/A
2:20 PM66 °FPassing clouds.9 mph56%30.07 "HgN/A
1:50 PM70 °FPassing clouds.9 mph53%30.07 "HgN/A
1:20 PM68 °FPassing clouds.10 mph56%30.07 "HgN/A
12:50 PM68 °FPassing clouds.9 mph56%30.07 "HgN/A
12:20 PM68 °FPassing clouds.10 mph56%30.09 "HgN/A
11:50 AM68 °FPassing clouds.8 mph60%30.09 "HgN/A
10:50 AM63 °FScattered clouds.8 mph73%30.09 "HgN/A
10:20 AM63 °FBroken clouds.8 mph77%30.09 "HgN/A
9:50 AM61 °FPartly sunny.6 mph88%30.09 "Hg4 mi
9:20 AM59 °FBroken clouds.2 mph94%30.09 "Hg4 mi
8:50 AM57 °FFog.1 mph94%30.09 "Hg3 mi
8:20 AM55 °FFog.2 mph94%30.07 "Hg3 mi
7:50 AM54 °FFog.3 mph94%30.07 "Hg3 mi
7:20 AM54 °FOvercast.3 mph94%30.07 "Hg4 mi
6:50 AM54 °FPassing clouds.3 mph88%30.07 "Hg5 mi
6:20 AM52 °FFog.3 mph94%30.07 "Hg0 mi
5:50 AM54 °FFog.2 mph94%30.07 "Hg0 mi
5:20 AM54 °FFog.3 mph94%30.07 "Hg0 mi
4:50 AM52 °FFog.No wind94%30.07 "Hg0 mi
4:20 AM54 °FFog.No wind94%30.07 "Hg1 mi
3:50 AM54 °FFog.No wind94%30.07 "Hg1 mi
3:20 AM54 °FFog.No wind94%30.07 "Hg1 mi
2:50 AM54 °FFog.1 mph94%30.07 "Hg0 mi
2:20 AM52 °FFog.2 mph94%30.07 "Hg0 mi
1:50 AM52 °FFog.No wind94%30.07 "Hg1 mi
1:20 AM52 °FFog.2 mph94%30.07 "Hg1 mi
Weather by CustomWeather, © 2014

See weather overviewHow to use our weather pages